Wind_Speed
16 19 19 18 16 16 15 16 13 10 15 14 13 12 10 10 11 9 6 3 5 9 12 13 16 14 17 18 19 17 17 16 13 13 15 14 13 12 12 13 11 7 5
16 18 18 17 15 16 18 19 15 11 9 9 7 9 8 7 6 4 4 2 2 3 7 9 12 18 18 18 16 18 17 13 13 14 15 15 14 13 15 11 10 8 2
18 15 16 15 15 13 13 12 12 11 12 8 5 2 2 3 5 4 3 4 6 6 6 10 13 13 19 16 14 19 14 13 13 14 15 15 14 15 16 14 10 9 7
12 9 15 14 12 12 13 13 13 12 14 13 8 4 3 3 5 3 5 9 10 13 13 12 8 12 14 12 15 16 14 13 12 13 14 14 15 16 17 17 13 9 5
9 10 12 13 7 14 15 13 12 11 11 8 2 3 2 4 7 10 11 13 19 22 16 11 9 9 11 13 16 17 12 12 12 12 12 14 16 17 18 20 15 15 11
10 5 7 8 11 13 14 12 10 9 10 6 4 5 5 6 7 10 15 14 20 20 10 8 10 9 10 12 12 13 10 10 11 11 11 13 16 18 19 20 21 17 17
10 13 10 12 17 15 12 11 9 6 9 7 11 7 11 10 12 15 17 24 15 14 14 10 11 16 20 15 11 12 10 9 10 10 10 12 14 16 18 19 20 19 16
15 10 6 15 22 14 15 10 12 9 8 10 11 12 11 17 12 12 15 17 12 10 17 9 10 17 17 10 10 12 12 10 10 11 11 11 12 15 17 18 18 19 19
11 8 14 15 17 14 8 13 8 8 11 8 8 10 11 9 7 8 6 9 5 6 14 10 10 12 16 11 14 11 9 9 10 11 12 12 12 13 14 16 17 17 17
17 15 18 8 12 18 11 7 8 7 8 10 9 11 19 12 11 8 1 6 3 3 7 9 11 16 17 14 15 11 9 7 11 12 12 13 13 13 12 12 12 13 14
16 14 14 14 10 11 8 7 7 9 8 8 11 10 7 4 2 8 9 6 7 8 9 15 6 12 14 16 14 11 9 8 10 11 10 10 11 12 12 10 9 9 9
14 16 16 15 11 9 10 8 7 9 7 8 11 14 10 9 11 9 11 9 9 12 12 13 6 8 12 12 10 10 7 8 11 12 10 9 9 10 11 11 9 8 8
9 12 12 9 7 7 6 6 8 7 8 7 7 8 9 8 11 13 9 8 9 11 15 8 8 9 13 11 10 11 8 10 10 11 10 10 9 9 9 9 7 5 7
7 6 9 8 5 4 6 9 8 7 9 9 10 8 7 11 12 14 11 9 8 12 15 15 15 14 12 10 11 11 10 10 10 11 9 9 8 8 8 7 5 4 4
6 8 7 5 4 6 5 6 9 6 6 7 7 6 9 11 13 16 13 9 9 10 14 13 16 11 9 11 10 13 12 11 10 9 9 8 9 8 7 7 5 3 4
9 9 6 8 5 7 8 6 4 5 5 7 10 10 9 10 10 11 11 11 11 10 10 11 10 11 9 8 11 11 11 10 9 8 9 8 7 8 7 5 5 6 6
11 11 9 13 9 7 6 6 5 5 6 8 8 9 9 9 11 13 14 12 13 13 13 12 13 14 14 11 10 10 11 12 11 8 9 8 8 5 6 8 7 6 6
15 13 10 9 9 8 7 7 6 6 7 8 8 7 8 10 11 12 13 12 14 12 14 15 17 17 18 13 10 10 12 13 13 13 12 10 8 7 8 8 9 10 11
17 15 14 11 11 10 9 9 8 9 10 10 11 11 10 8 9 10 12 12 11 12 12 12 14 15 20 17 14 12 15 16 17 18 16 15 11 12 13 14 13 13 14
15 13 12 12 12 11 11 10 11 11 10 9 11 13 13 13 12 13 14 15 15 15 14 14 14 16 18 20 19 15 11 12 10 13 13 15 17 16 15 17 17 16 17
17 14 13 13 13 13 12 11 12 12 13 13 15 12 13 15 16 17 16 17 17 18 18 17 17 18 19 18 21 18 13 12 15 14 18 14 16 17 18 19 21 20 20
16 16 16 15 15 15 14 16 16 18 20 19 17 19 18 16 19 20 21 21 21 21 21 20 19 20 20 20 20 20 19 18 18 18 19 16 16 18 19 22 23 24 24
16 17 18 18 18 19 18 21 21 21 24 25 23 22 21 22 23 21 23 24 24 21 20 22 21 20 22 23 24 24 23 23 23 22 22 22 19 20 21 24 26 29 28
19 21 21 21 22 23 25 25 24 25 25 26 25 26 28 28 25 24 23 25 23 23 23 20 20 20 22 23 24 26 25 25 25 25 27 26 26 26 27 27 27 28 29
21 24 26 27 26 25 24 25 25 26 27 29 31 30 28 24 23 22 24 26 26 28 27 25 27 27 23 23 24 28 29 27 27 27 26 27 28 28 29 32 31 33 33
19 21 22 25 27 26 24 23 22 21 19 21 21 20 16 15 19 23 24 21 23 26 27 27 22 20 22 25 26 29 27 27 25 24 25 28 32 35 34 34 36 36 44
Wind_Direction
139 147 149 143 138 133 136 140 142 142 133 131 125 124 112 105 104 104 90 58 37 15 7 5 4 1 358 355 355 1 357 2 6 10 5 1 356 339 336 342 336 307 297
153 160 158 155 152 146 136 139 142 128 133 122 120 118 99 101 84 84 65 332 340 15 351 346 349 354 351 348 353 355 354 13 15 15 7 3 1 352 354 12 18 17 327
158 168 166 165 154 143 140 136 134 124 121 97 69 16 303 117 164 208 270 320 312 326 336 295 33 8 344 354 358 356 10 20 22 22 12 8 11 9 10 20 40 69 113
179 168 172 166 162 155 162 151 149 139 126 106 103 99 185 209 209 253 320 323 324 299 294 310 350 22 352 8 357 4 16 18 26 26 20 18 23 27 23 31 54 59 93
162 169 189 174 198 176 172 171 165 161 145 135 72 28 19 269 304 322 316 308 308 299 288 283 28 27 30 5 356 357 15 22 32 27 26 27 32 36 38 40 50 66 79
174 177 168 198 174 184 180 180 182 183 202 197 231 296 280 301 309 317 307 303 305 338 335 354 20 14 20 346 347 354 4 25 35 33 26 29 35 40 43 49 52 60 71
152 200 219 195 173 185 208 197 193 231 237 267 283 282 310 319 312 335 316 314 296 324 337 351 14 15 17 341 343 359 0 21 27 28 27 31 34 42 46 49 55 64 74
170 159 194 168 187 188 213 209 218 231 263 292 284 276 276 277 298 311 323 327 274 298 324 344 43 36 16 5 354 3 356 7 17 16 16 27 34 38 42 48 52 59 68
171 122 143 169 198 198 216 219 208 201 242 265 295 283 266 287 263 294 351 25 37 299 313 8 29 39 21 31 3 1 7 2 8 11 9 14 24 35 38 43 50 53 60
149 145 164 140 164 200 213 204 241 217 242 243 281 292 251 274 238 256 293 51 92 270 357 8 9 22 19 24 16 27 14 13 7 3 5 4 11 22 29 36 44 58 63
161 165 169 176 176 175 197 195 219 232 239 260 266 270 266 277 320 275 315 312 311 303 325 347 13 26 13 9 15 27 24 9 4 10 358 359 6 9 15 15 28 43 64
173 169 175 194 194 209 221 239 263 260 255 258 258 264 261 279 290 293 335 319 303 289 315 343 1 7 1 17 13 2 9 11 353 360 355 349 356 0 6 6 17 43 52
186 175 191 204 196 200 217 242 258 278 284 276 265 252 257 278 297 302 317 316 325 285 291 305 321 333 331 349 4 1 355 0 347 340 340 340 345 349 357 2 14 45 54
182 207 185 194 185 237 241 236 238 248 254 263 261 287 289 287 285 286 280 299 282 298 281 284 286 312 336 359 348 349 330 349 349 334 324 327 340 341 346 358 21 46 33
169 175 178 193 214 232 242 257 264 240 249 251 249 255 261 269 271 267 273 278 284 300 278 291 288 309 314 324 323 329 330 333 341 327 326 327 333 334 339 345 341 350 7
205 203 216 204 220 233 235 232 243 274 261 282 266 251 259 272 269 266 263 261 281 281 273 317 319 301 300 312 304 304 319 312 328 312 320 320 318 322 326 334 334 324 321
218 224 209 209 216 224 235 239 252 267 280 292 308 242 242 255 265 266 265 260 264 269 286 287 287 302 302 297 292 288 301 305 306 302 311 311 307 308 319 326 328 319 309
211 214 219 222 228 229 240 248 262 275 287 293 295 284 271 267 264 270 271 262 254 268 272 275 284 283 294 306 303 307 307 306 297 301 298 292 294 295 296 298 298 299 300
216 217 223 230 231 231 239 240 254 272 280 282 279 276 273 270 261 261 266 269 270 273 273 273 278 278 292 298 301 297 302 311 281 291 290 280 280 282 287 289 290 288 286
225 228 225 226 231 233 237 250 258 262 265 268 271 269 271 272 264 264 260 265 270 274 273 271 272 272 285 291 287 285 296 291 295 275 271 281 278 279 286 284 281 281 283
224 221 223 221 222 230 240 250 262 267 268 274 278 280 289 284 282 275 268 263 264 267 269 268 268 268 274 279 278 284 282 275 290 259 275 266 269 279 281 281 282 283 283
204 210 216 226 242 246 253 262 270 274 271 272 270 279 284 286 291 282 279 273 268 270 274 275 271 270 272 280 273 273 275 275 276 273 265 267 266 269 274 278 284 278 278
224 230 241 251 256 262 271 278 279 278 282 275 278 278 283 284 282 272 276 275 275 275 276 276 275 276 280 281 278 276 275 278 277 273 269 274 275 274 271 273 279 279 280
240 248 253 258 267 270 276 279 279 282 280 276 275 281 285 284 274 271 273 270 269 270 273 273 275 280 286 284 280 276 272 270 270 271 276 281 282 284 282 280 278 279 281
250 256 257 260 265 268 274 280 280 281 281 277 278 278 279 277 271 272 272 269 266 272 270 271 280 276 275 277 280 278 264 256 259 267 274 280 283 284 284 284 279 273 282
250 261 259 264 269 270 271 274 279 283 280 282 280 276 271 275 274 266 272 271 277 284 276 275 276 274 279 275 271 265 260 259 259 265 273 282 286 283 283 285 282 278 283
Height
3221 3222 3223 3224 3225 3225 3226 3228 3232 3233 3233 3233 3235 3236 3236 3235 3233 3233 3234 3234 3234 3233 3230 3227 3223 3221 3217 3213 3209 3205 3202 3198 3195 3192 3189 3186 3182 3178 3174 3169 3164 3160 3158
3221 3223 3225 3226 3227 3227 3228 3230 3231 3232 3233 3234 3236 3237 3236 3235 3235 3236 3235 3234 3232 3230 3227 3224 3221 3220 3216 3213 3209 3206 3201 3198 3195 3193 3190 3186 3182 3177 3173 3167 3163 3159 3157
3223 3224 3227 3228 3229 3231 3232 3232 3234 3235 3235 3237 3239 3237 3234 3234 3234 3235 3235 3236 3234 3230 3226 3218 3214 3215 3215 3213 3210 3206 3202 3199 3196 3194 3191 3187 3182 3177 3173 3168 3164 3161 3159
3224 3226 3228 3229 3230 3232 3231 3232 3235 3236 3237 3236 3236 3238 3237 3236 3237 3237 3236 3236 3235 3232 3228 3223 3220 3215 3214 3213 3210 3206 3202 3200 3197 3195 3191 3188 3184 3179 3174 3170 3166 3163 3160
3225 3227 3229 3230 3231 3231 3232 3234 3236 3238 3237 3237 3238 3239 3240 3239 3239 3238 3235 3234 3232 3230 3225 3222 3218 3214 3211 3213 3211 3208 3203 3201 3198 3196 3192 3190 3186 3182 3177 3173 3169 3166 3163
3227 3229 3229 3231 3232 3232 3232 3235 3237 3238 3239 3237 3238 3240 3238 3238 3239 3239 3233 3232 3230 3229 3226 3223 3217 3216 3210 3212 3211 3208 3205 3201 3199 3197 3195 3191 3188 3184 3180 3176 3172 3169 3168
3226 3227 3228 3229 3231 3231 3234 3236 3238 3239 3239 3239 3240 3239 3238 3239 3240 3236 3232 3227 3229 3228 3225 3224 3219 3215 3212 3212 3211 3209 3206 3202 3200 3198 3197 3194 3191 3187 3183 3179 3176 3173 3171
3224 3226 3226 3228 3229 3230 3233 3237 3237 3238 3240 3239 3240 3240 3240 3239 3239 3234 3231 3226 3225 3227 3224 3222 3218 3215 3213 3213 3210 3209 3207 3204 3202 3200 3199 3197 3194 3191 3188 3184 3181 3178 3175
3224 3226 3224 3226 3227 3230 3232 3234 3234 3235 3238 3238 3237 3238 3238 3238 3237 3234 3234 3231 3225 3228 3226 3223 3220 3216 3215 3213 3211 3209 3207 3206 3203 3201 3200 3199 3197 3195 3192 3188 3185 3183 3181
3225 3227 3226 3226 3228 3230 3234 3232 3230 3233 3235 3235 3235 3235 3235 3235 3234 3235 3234 3231 3231 3230 3228 3226 3223 3219 3216 3214 3210 3209 3207 3207 3205 3203 3202 3200 3198 3196 3194 3192 3189 3187 3184
3222 3225 3227 3228 3229 3231 3231 3231 3231 3231 3232 3232 3232 3234 3235 3233 3231 3232 3230 3229 3230 3229 3226 3225 3223 3218 3217 3214 3212 3209 3208 3207 3206 3204 3203 3201 3199 3197 3195 3193 3191 3189 3187
3223 3224 3226 3228 3229 3229 3230 3229 3228 3229 3231 3231 3231 3230 3230 3229 3228 3228 3226 3225 3224 3225 3224 3223 3220 3216 3216 3214 3212 3211 3209 3207 3207 3204 3203 3202 3200 3198 3196 3194 3192 3191 3190
3222 3224 3226 3228 3229 3229 3229 3229 3229 3228 3229 3229 3228 3227 3226 3225 3224 3225 3225 3224 3222 3221 3221 3222 3219 3217 3216 3214 3213 3211 3209 3208 3206 3205 3203 3202 3201 3199 3197 3195 3193 3192 3191
3221 3223 3224 3225 3225 3226 3227 3228 3227 3228 3227 3226 3225 3223 3222 3222 3222 3223 3223 3222 3222 3220 3219 3218 3217 3216 3214 3213 3212 3210 3209 3207 3205 3204 3203 3202 3200 3199 3198 3196 3194 3193 3192
3220 3220 3222 3223 3224 3224 3224 3225 3225 3225 3224 3223 3222 3222 3222 3221 3221 3220 3220 3219 3219 3220 3218 3217 3215 3214 3213 3212 3211 3210 3208 3206 3204 3203 3203 3201 3200 3199 3198 3197 3195 3194 3193
3217 3219 3220 3221 3222 3222 3222 3223 3222 3222 3222 3222 3221 3221 3221 3220 3219 3219 3218 3217 3217 3217 3216 3215 3214 3212 3211 3211 3210 3209 3207 3204 3202 3202 3202 3200 3199 3198 3197 3195 3194 3194 3193
3217 3218 3219 3220 3221 3221 3221 3222 3222 3222 3221 3220 3219 3219 3220 3219 3218 3216 3215 3214 3214 3214 3213 3213 3211 3209 3207 3208 3207 3207 3205 3203 3200 3199 3199 3198 3198 3196 3196 3195 3193 3192 3191
3216 3217 3217 3219 3220 3221 3221 3220 3220 3220 3219 3218 3218 3217 3216 3215 3215 3213 3212 3212 3211 3211 3211 3210 3208 3206 3203 3204 3204 3203 3202 3200 3199 3198 3197 3196 3195 3195 3194 3193 3192 3191 3190
3214 3215 3217 3218 3219 3219 3218 3217 3216 3216 3215 3214 3214 3213 3212 3211 3210 3210 3209 3209 3208 3207 3207 3206 3205 3202 3200 3200 3201 3201 3200 3198 3195 3195 3194 3193 3192 3192 3191 3191 3189 3188 3187
3211 3213 3214 3215 3215 3215 3214 3213 3213 3213 3211 3211 3210 3209 3208 3207 3206 3206 3205 3205 3204 3204 3203 3203 3202 3200 3198 3197 3197 3198 3197 3194 3192 3192 3192 3191 3188 3187 3186 3186 3185 3184 3183
3207 3208 3209 3210 3210 3209 3209 3208 3208 3208 3208 3207 3206 3205 3205 3204 3204 3203 3202 3200 3199 3198 3197 3198 3198 3197 3196 3194 3192 3193 3193 3192 3190 3189 3188 3186 3185 3184 3182 3181 3181 3179 3178
3203 3204 3205 3205 3205 3205 3204 3204 3203 3203 3203 3202 3202 3201 3200 3199 3198 3197 3196 3195 3195 3194 3193 3192 3191 3191 3190 3190 3189 3189 3188 3187 3186 3184 3183 3182 3181 3180 3178 3177 3175 3174 3173
3198 3200 3200 3200 3200 3200 3201 3199 3198 3196 3196 3196 3196 3196 3194 3193 3192 3191 3190 3189 3189 3189 3188 3187 3186 3185 3185 3184 3184 3182 3182 3180 3178 3177 3177 3176 3175 3175 3173 3170 3169 3167 3166
3192 3194 3195 3196 3195 3194 3193 3192 3191 3190 3189 3189 3188 3188 3187 3186 3185 3185 3184 3183 3182 3181 3181 3181 3180 3179 3178 3177 3177 3176 3175 3173 3172 3170 3169 3169 3169 3168 3166 3164 3163 3161 3159
3185 3187 3187 3188 3188 3187 3186 3185 3184 3183 3182 3181 3180 3179 3179 3178 3178 3178 3177 3176 3174 3173 3174 3173 3172 3171 3170 3169 3168 3168 3167 3166 3163 3162 3161 3160 3160 3159 3158 3156 3155 3153 3152
3178 3179 3179 3180 3179 3179 3178 3177 3177 3175 3174 3173 3173 3172 3171 3171 3170 3170 3169 3168 3167 3166 3166 3166 3164 3162 3162 3161 3161 3159 3158 3157 3155 3154 3154 3154 3152 3151 3148 3147 3145 3144 3142